Location: ???? ?????
(30.0052°N, 31.2891°E)
Time: 08:33:33
(UTC+00:00)

SEDSat Delta rocket - Pass Details

Date: 07 October 2022
Orbit: 532 x 995 km, 31.4° (Epoch: 04 December)

Event Time Altitude Azimuth Distance (km) Brightness Sun altitude
Rises 18:16:10 0° 277° (W) 3,370 7.8 -35.8°
Reaches altitude 10° 18:18:51 10° 267° (W) 2,506 6.8 -36.3°
Enters shadow 18:22:17 27° 237° (WSW) 1,682 5.5 -37.1°
